www.pogodaiklimat.ru

Погода и климат >> Архив погоды >> Казахстан >> Тайпак


ПОГОДА в Тайпаке

АРХИВ ПОГОДЫ в Тайпаке

Время (UTC), дата Ветер
(напр.,м/с)
 
Видим.   Явления Облачность Т
(С)
Тd
(С)
f
(%)
Тe
(С)
Тes
(С)
Комфортность P
(гПа)
Po
(гПа)
Тmin
(С)
Tmax
(С)
R
(мм)
R24
(мм)
S
(см)
21 14.01 СВ 1 н/о ясно -25.3 -28.4 75 -29 -29 1039.2 1039.0
00 15.01 СВ 2 н/о ясно -26.2 -30.1 70 -33 -33 опасность
обморожения
1039.4 1039.2
03 15.01 СВ 1 н/о ясно -26.3 -30.1 70 -30 -30 1039.6 1039.4 8
06 15.01 СВ 1 10 км ясно -24.8 -28.7 70 -28 -27 1041.0 1040.8 -30.2
09 15.01 СВ 2 10 км ясно -19.4 -22.7 75 -25 -23 1040.8 1040.6
12 15.01 СВ 1 10 км ясно -19.4 -23.5 70 -22 -22 1040.5 1040.3
15 15.01 штиль 0 н/о ясно -22.6 -25.8 75 -23 -23 1040.2 1040.0 -18.1
18 15.01 СВ 1 н/о ясно -23.5 -27.4 70 -27 -27 1040.2 1040.0 -18.6
21 15.01 СВ 1 н/о ясно -23.4 -26.6 75 -27 -27 1039.7 1039.5
00 16.01 СВ 1 н/о ясно -22.7 -25.9 75 -26 -26 1039.3 1039.1
03 16.01 штиль 0 н/о ясно -24.2 -27.3 75 -24 -24 1038.2 1038.0 8
06 16.01 ЮВ 1 10 км слабый снег 10/10 600 м
[Sc]
-19.0 -21.6 80 -22 -22 1037.5 1037.3 -24.3
09 16.01 ЮВ 2 10 км {снег} 8/0
[Ac trans]
-16.3 -20.5 70 -22 -20 1036.5 1036.3
12 16.01 Ю 2 10 км {снег} 9/0
[Ac trans]
-15.3 -18.7 75 -20 -20 1035.1 1034.9
15 16.01 Ю 2 н/о слабый снег 10/10 600 м
[Sc]
-16.9 -20.3 75 -22 -22 1033.7 1033.5 -14.5
18 16.01 СЗ 2 н/о слабый снег 10/10 600 м
[Sc]
-17.0 -19.6 80 -22 -22 1032.4 1032.2 -14.5 0.0
21 16.01 СЗ 1 н/о слабый снег 10/0 600 м
[As op]
-15.8 -17.7 85 -18 -18 1031.3 1031.1
00 17.01 СЗ 1 н/о слабый снег 10/0 600 м
[As op]
-14.9 -16.9 85 -17 -17 1030.7 1030.5
03 17.01 С 1 н/о слабый снег 10/0 600 м
[As op]
-14.6 -16.6 85 -17 -17 1029.6 1029.4 9
06 17.01 штиль 0 10 км слабый снег 10/0 600 м
[As op]
-13.8 -16.5 80 1029.3 1029.1 -17.5 0.3
09 17.01 Ю 2 10 км слабый снег 10/0 600 м
[As op]
-12.2 -14.9 80 -17 -16 1029.1 1028.9
12 17.01 Ю 2 10 км {снег} 10/0
[As op]
-14.1 -16.8 80 -19 -19 1028.5 1028.3
15 17.01 ЮВ 2 н/о 8/0
[Ac trans]
-14.6 -16.6 85 -20 -20 1028.5 1028.3 -11.9
18 17.01 ЮВ 2 н/о ясно -19.6 -22.2 80 -25 -25 1028.1 1027.9 -11.9 0.3
21 17.01 Ю 2 н/о ясно -22.0 -25.2 75 -28 -28 1028.2 1028.0
00 18.01 ЮВ 2 н/о ясно -24.8 -28.0 75 -31 -31 опасность
обморожения
1028.2 1028.0
03 18.01 В 3 н/о ясно -25.5 -29.4 70 -34 -34 опасность
обморожения
1027.7 1027.5 11
06 18.01 ЮВ 3 10 км ясно -22.4 -25.6 75 -30 -30 1027.6 1027.4 -25.6
09 18.01 ЮВ 3 10 км ясно -18.3 -22.4 70 -26 -23 1026.7 1026.5
12 18.01 ЮВ 4 10 км ясно -16.7 -20.9 70 -25 -25 1025.2 1025.0
15 18.01 В 5 н/о ясно -20.0 -23.3 75 -30 -30 1024.2 1024.0 -16.4
18 18.01 В 4 н/о ясно -21.4 -24.7 75 -31 -31 опасность
обморожения
1024.0 1023.8 -16.4
21 18.01 В 4 н/о ясно -21.3 -24.6 75 -31 -31 опасность
обморожения
1023.8 1023.6
00 19.01 В 4 н/о ясно -20.9 -23.4 80 -30 -30 1022.9 1022.7
03 19.01 В 4 н/о слабый снег 10/0 600 м
[As op]
-17.3 -19.9 80 -26 -26 1022.0 1021.8 11
06 19.01 В 4 10 км слабый снег 10/0 600 м
[As op]
-13.8 -16.5 80 -21 -21 1023.0 1022.8 -22.6 0.0
09 19.01 В 5 10 км {снег} 10/0 600 м
[As op]
-9.9 -12.1 84 -18 -17 1022.9 1022.7
12 19.01 В 3 10 км {снег} 10/10 600 м
[Sc]
-8.4 -10.3 86 -14 -14 1023.1 1022.9
15 19.01 ЮВ 4 н/о ясно -9.7 -10.9 91 -17 -17 1023.6 1023.4 -7.9
18 19.01 В 3 н/о 10/10 600 м
[Sc]
-9.5 -11.1 88 -15 -15 1023.9 1023.7 -7.9 0.0
21 19.01 В 3 н/о 10/10 600 м
[Sc]
-8.5 -10.4 86 -14 -14 1024.2 1024.0
00 20.01 В 6 н/о 10/10 600 м
[Sc]
-9.3 -11.4 85 -18 -18 1023.8 1023.6
03 20.01 СВ 5 н/о 10/10 600 м
[Sc]
-8.7 -11.1 83 -16 -16 1024.4 1024.2 11
06 20.01 В 4 10 км 10/10 600 м
[Sc]
-8.8 -11.7 79 -16 -16 1024.8 1024.6 -10.0
09 20.01 В 4 10 км 9/9 600 м
[Sc]
-7.8 -11.4 75 -14 -14 1024.3 1024.1
12 20.01 В 2 10 км 6/0
[Ac trans]
-7.7 -10.4 81 -12 -12 1024.0 1023.8
15 20.01 ЮВ 1 н/о ясно -10.5 -11.8 90 -13 -13 1025.4 1025.2 -7.2
18 20.01 В 2 н/о ясно -11.9 -13.8 86 -16 -16 1024.8 1024.6 -7.2
21 20.01 В 1 н/о ясно -13.8 -15.5 87 -16 -16 1025.2 1025.0
00 21.01 В 3 н/о ясно -13.4 -15.1 87 -20 -20 1025.2 1025.0
03 21.01 ЮВ 3 н/о ясно -15.1 -16.9 86 -22 -22 1024.4 1024.2 11
06 21.01 В 4 10 км 8/0
[Ac trans]
-13.3 -16.0 80 -21 -20 1024.6 1024.4 -15.2
09 21.01 В 5 10 км 10/10 600 м
[Sc]
-9.8 -12.9 78 -18 -18 1023.6 1023.4
12 21.01 В 4 10 км 10/10 600 м
[Sc]
-8.4 -11.2 80 -15 -15 1022.4 1022.2
15 21.01 В 6 н/о 10/10 600 м
[Sc]
-8.7 -11.6 79 -17 -17 1022.0 1021.8 -8.2

 

Местоположение метеостанции Тайпак (Западно-Казахстанская область, Казахстан): широта 49.05 долгота 51.87 высота над уровнем моря 2 м.

В архиве по умолчанию представлена погода в Тайпаке за последнюю неделю. Архивные данные за месяц целиком и за предыдущие месяцы, начиная с января 2011 года, Вы можете получить, выбрав интересующий диапазон дат из раскрывающегося списка и нажав кнопку "Ввод!".

Внимание! Время в таблицах - всемирное. Для получения местного времени необходимо прибавить поправку, которая в Тайпаке равна 5 ч.

Смотрите также архив погоды в соседних городах и на ближайших метеорологических станциях:

Погода в Индерборском (Атырауская область, Казахстан) (62 км)
Погода в Карабау (Атырауская область, Казахстан) (102 км)
Погода в Жангала (Западно-Казахстанская область, Казахстан) (116 км)
Погода в Каратобе (Западно-Казахстанская область, Казахстан) (131 км)
Погода в Чапаево (Западно-Казахстанская область, Казахстан) (137 км)
Погода в Джамбейты (Западно-Казахстанская область, Казахстан) (143 км)
Погода в Махамбете (Атырауская область, Казахстан) (155 км)
Погода в Жалпактале (Западно-Казахстанская область, Казахстан) (186 км)
Погода в Макате (Атырауская область, Казахстан) (189 км)
Погода в Анкаты (Западно-Казахстанская область, Казахстан) (198 км)

Пояснения к столбцам:

Ветер - указаны скорость ветра в м/с - средняя за 10 мин, порывы в срок и между сроками (в фигурных скобках) и направление, откуда дует ветер: С - северный, СВ - северо-восточный, В - восточный, ЮВ - юго-восточный, Ю - южный, ЮЗ - юго-западный, З - западный, СЗ - северо-западный.
Видимость - горизонтальная дальность видимости в метрах или километрах. При видимости от 1 до 10 км при отсутствии осадков обычно наблюдается дымка, при ухудшении видимости до 1 км и менее - туман. В сухую погоду видимость может ухудшаться дымом, пылью или мглою.
Явления - указаны атмосферные явления, наблюдавшиеся в срок или в последний час перед сроком; фигурными скобками обозначены явления, наблюдавшиеся между сроками (за 1-3 часа до срока); квадратными скобками обозначены град или гололедные отложения с указанием их диаметра в мм.
Облачность - указаны через наклонную черту общая и нижняя облачность в баллах и высота нижней границы облаков в метрах; квадратными скобками обозначены формы облаков: Ci - перистые, Cs - перисто-слоистые, Cc - перисто-кучевые, Ac - высококучевые, As - высокослоистые, Sc - слоисто-кучевые, Ns - слоисто-дождевые, Cu - кучевые, Cb - кучево-дождевые. Подробнее классификацию облаков см. в Атласе облаков (PDF).
T - Температура воздуха - температура, измеренная на высоте 2 м над землей.
Td - Температура точки росы - температура, при понижении до которой содержащийся в воздухе водяной пар достигнет насыщения.
f - Относительная влажность воздуха - влажноcть воздуха, измеренная на высоте 2 м над землей.
Te - Эффективная температура - температура, которую ощущает одетый по сезону человек в тени. Характеристика душности погоды. При расчете учитывается влияние влажности воздуха и скорости ветра на теплоощущения человека.
Tes - Эффективная температура на солнце - температура, которую ощущает человек, с поправкой на солнечный нагрев. Характеристика знойности погоды. Зависит от высоты солнца над горизонтом, облачности и скорости ветра. Ночью, в пасмурную погоду, а также при ветре 12 м/с и более поправка равна нулю.
P - Атмосферное давление - приведенное к уровню моря атмосферное давление.
Po - Атмосферное давление - измеренное на уровне метеостанции атмосферное давление.
Tmin - Минимальная температура - минимум температуры воздуха на высоте 2 м над землей.
Tmax - Максимальная температура - максимум температуры воздуха на высоте 2 м над землей.
R - Количество осадков - Количество выпавших осадков за период времени, мм. При наведении курсора мыши на число - период времени, за который выпало указанное количество осадков.
R24 - Количество осадков - Количество выпавших осадков за 24 часа, мм.
S - Снежный покров - Высота снежного покрова, см. При наведении курсора мыши на число - состояние снежного покрова и степень покрытия местности в баллах.